Theta_e
301 302 302 302 303 303 303 303 303 304 304 305 305 306 307 308 308 306 302 302 298 292 293 295 294 292 292 291 287 291 291 292 290 285 285 286 285 287 287 289 288 287 285 286 286 286 286 299 297 293 296 300 300 301
301 301 301 302 302 303 302 303 303 303 304 305 305 306 307 308 308 307 300 301 301 294 293 299 298 299 297 296 292 292 292 291 292 287 288 288 286 288 286 283 290 286 289 288 288 289 297 300 298 301 301 300 301 302
302 301 301 301 302 302 302 302 303 303 304 305 305 305 306 307 307 306 302 301 299 293 294 294 294 298 301 300 301 290 295 295 295 297 291 287 286 288 285 285 287 291 293 290 291 293 295 297 299 301 302 301 303 303
302 302 302 301 301 302 302 302 302 303 304 304 305 306 305 306 307 305 301 303 299 294 289 292 299 298 302 302 300 298 296 297 295 295 291 291 286 293 289 289 289 292 294 290 291 293 295 297 298 299 301 302 302 304
303 303 302 302 302 302 302 302 302 303 303 305 305 305 305 305 306 305 304 304 303 296 290 292 298 300 302 302 299 299 297 295 294 291 291 290 293 293 295 293 290 294 292 290 289 293 292 294 298 300 301 301 302 302
303 303 303 303 302 302 302 302 302 303 303 304 304 305 305 306 305 301 296 300 301 299 293 288 297 296 299 301 299 299 299 296 295 293 291 296 296 294 289 289 293 295 298 299 295 298 298 299 300 302 301 303 302 303
303 303 303 303 302 302 302 302 303 303 303 304 304 304 306 307 303 297 297 300 301 302 293 289 290 297 299 300 300 299 298 295 297 294 293 292 293 294 292 288 293 295 297 298 299 301 298 298 298 302 302 303 304 305
303 303 303 303 303 302 302 302 302 303 303 303 303 305 306 305 304 301 304 303 303 298 296 288 290 293 299 295 294 298 295 295 295 293 294 293 294 294 289 293 295 295 296 297 298 299 299 301 302 302 303 304 304 304
303 303 303 304 303 303 302 302 302 303 303 303 303 305 303 300 298 301 305 305 302 297 292 291 287 287 298 295 296 296 295 291 295 290 291 292 289 287 290 291 293 294 295 295 297 299 299 300 300 301 302 303 303 305
303 304 304 303 303 303 302 302 302 303 303 301 302 299 296 298 304 306 300 297 296 297 296 290 295 290 295 294 292 292 292 288 286 290 293 287 288 291 293 295 296 298 299 299 295 296 298 298 299 300 301 303 303 305
303 303 303 303 302 303 302 301 302 302 298 295 292 294 298 303 300 295 293 291 292 291 295 295 295 293 297 291 289 291 287 288 284 288 288 288 287 293 297 297 299 300 300 300 300 301 302 301 300 300 301 302 304 304
303 303 303 303 303 302 302 302 302 297 295 294 295 297 297 296 292 289 288 289 290 289 294 294 294 296 295 297 291 291 286 288 283 291 288 286 292 297 297 297 298 301 301 301 302 302 303 303 303 302 303 303 304 304
302 303 303 302 302 302 302 301 301 300 300 300 295 293 292 291 286 285 284 287 288 293 295 295 293 296 293 294 290 290 284 284 290 288 286 289 295 298 298 299 299 301 302 303 302 303 303 304 305 305 304 305 305 305
302 302 302 302 302 302 300 300 301 299 295 292 290 286 287 286 288 290 291 292 295 294 294 294 293 294 294 290 289 286 287 287 283 283 285 294 297 298 299 300 300 301 301 301 301 302 301 302 303 304 305 307 306 304
302 302 302 301 301 300 300 301 300 298 293 291 291 286 288 292 292 293 294 294 295 296 294 292 292 292 290 288 289 286 283 281 284 286 293 298 298 299 299 299 300 301 301 302 302 301 301 302 302 302 305 306 308 306
302 301 298 299 299 300 300 299 297 297 295 293 292 290 292 291 291 292 293 294 297 294 294 293 290 288 286 287 283 282 283 282 289 290 298 299 299 300 300 300 301 302 302 303 303 303 304 303 302 302 304 303 307 308
301 297 298 299 300 300 299 296 296 295 294 294 293 295 293 293 293 293 295 296 296 295 293 291 288 287 288 285 283 286 284 292 295 297 300 299 299 300 300 300 302 302 302 303 303 303 302 303 304 303 301 302 303 306
297 299 300 299 299 298 295 296 294 295 291 296 293 294 293 296 295 295 296 296 296 295 293 292 293 289 287 285 287 290 291 296 297 298 299 301 301 301 300 302 301 301 302 303 303 303 303 303 302 301 302 302 303 303
298 300 300 300 299 294 290 292 295 289 293 296 294 294 294 295 297 298 298 297 297 298 296 293 291 290 291 293 294 296 297 297 298 300 300 301 301 300 300 300 301 301 302 303 303 303 304 304 304 304 304 302 300 300
300 300 300 299 297 291 289 291 297 293 290 294 295 294 294 295 296 296 296 296 295 294 292 291 292 295 296 298 299 300 300 300 299 298 300 301 301 301 300 300 301 301 302 303 304 297 303 301 303 303 303 301 299 297
296 297 297 297 294 292 291 290 290 292 293 292 295 295 295 294 294 293 293 295 293 293 292 294 296 298 300 300 301 301 301 300 300 301 301 300 303 302 301 301 301 302 302 302 302 302 301 299 300 302 302 300 301 300
295 296 294 295 290 291 289 292 289 291 290 293 293 294 292 292 292 293 294 292 293 294 295 296 297 299 299 297 299 300 302 301 301 301 295 297 300 301 301 300 300 300 301 301 302 301 301 299 300 301 300 301 299 301
295 293 291 291 287 287 288 294 289 291 286 288 290 289 289 289 291 293 291 293 294 297 298 297 299 299 298 300 300 300 301 301 301 301 302 302 302 302 301 301 301 301 301 301 302 301 300 294 297 299 298 299 298 298
295 290 287 286 285 284 289 287 290 289 289 288 288 286 288 290 291 289 288 292 295 296 296 297 298 297 299 298 299 300 301 302 302 301 302 301 301 302 302 303 302 302 302 303 302 301 300 299 295 297 295 295 295 294
285 284 285 283 286 285 284 285 286 285 286 288 286 287 289 289 287 286 287 291 293 293 294 295 295 296 295 297 299 301 300 301 301 300 301 301 302 302 302 301 301 301 303 303 300 299 297 297 297 294 293 292 292 292
280 283 282 283 284 283 285 284 285 286 286 286 286 289 288 287 284 285 288 290 291 292 293 293 294 295 295 297 298 299 300 302 301 300 300 300 301 301 299 298 298 298 302 302 300 297 295 294 294 293 291 290 288 291
279 279 284 287 286 286 285 286 286 285 285 284 287 285 286 282 283 288 292 294 294 295 295 294 295 296 297 299 300 300 301 302 301 302 302 301 300 300 300 298 297 298 300 298 297 296 295 293 292 291 290 290 289 289
283 283 280 283 283 286 284 284 283 283 286 289 288 284 284 284 286 292 294 296 296 297 297 296 296 296 298 300 300 299 299 299 298 297 297 298 299 299 299 298 298 288 296 295 295 295 294 293 291 290 290 289 288 289
282 284 284 280 283 283 284 284 285 288 291 290 288 286 288 293 295 296 297 297 298 297 295 296 296 297 296 295 296 299 300 297 296 294 295 294 295 296 298 298 297 297 295 293 285 289 291 292 291 290 288 288 288 287
281 284 281 281 280 281 285 287 287 290 292 293 293 292 291 293 296 299 297 297 295 294 295 296 295 295 295 294 292 292 292 295 296 296 295 294 294 296 298 297 297 296 295 294 293 291 285 290 288 290 288 287 285 284
285 284 282 282 282 285 287 289 290 290 290 289 291 290 290 291 294 294 293 293 294 295 295 295 295 296 293 292 292 291 290 291 292 293 294 295 295 295 295 297 296 295 294 292 291 290 289 288 287 284 283 283 281 281
284 282 281 279 281 286 288 286 287 286 287 287 287 289 289 289 288 289 290 291 293 293 290 293 294 292 291 291 291 290 287 289 290 291 291 292 293 294 295 294 294 293 291 290 289 288 287 286 285 283 281 281 281 280
282 283 283 282 282 282 286 286 285 285 286 286 287 288 289 288 285 286 289 289 289 289 289 290 290 290 290 289 288 287 286 286 284 283 284 284 285 287 291 291 290 290 289 288 287 287 285 284 283 282 281 280 280 279
Wind_Speed
19 19 20 21 21 23 24 24 23 23 23 23 22 20 18 16 11 2 3 5 3 4 12 9 6 7 10 5 3 7 7 1 3 3 3 2 2 2 1 3 3 2 2 3 3 4 4 16 4 4 7 8 11 12
19 19 19 20 21 22 23 24 24 24 23 22 22 21 18 16 11 3 3 3 3 4 8 12 15 20 19 17 6 3 5 5 3 3 2 4 2 3 4 2 3 1 3 2 3 4 7 10 3 7 6 9 11 12
20 20 20 20 20 21 22 23 24 24 24 23 22 21 18 15 9 4 3 3 2 4 7 3 3 2 4 7 8 4 2 3 3 2 3 2 3 3 4 4 3 1 1 2 3 3 10 8 8 10 12 12 14 14
21 21 20 21 21 22 22 23 24 25 24 23 22 20 18 14 8 7 3 1 1 3 4 5 4 6 3 9 9 11 8 2 2 2 3 2 2 4 2 0 2 2 3 4 3 6 8 3 11 15 17 16 17 17
20 21 21 21 22 22 23 23 24 25 25 24 24 22 19 14 7 5 3 4 4 1 4 7 14 3 5 6 7 8 8 5 1 2 2 2 2 3 2 2 3 5 5 4 3 5 6 13 13 18 17 19 20 20
18 19 20 20 21 22 23 24 24 25 26 27 27 25 20 11 4 2 3 3 5 4 3 5 4 4 5 7 6 5 2 2 1 2 2 3 3 3 3 1 3 6 8 7 6 12 14 15 14 10 18 18 19 18
18 19 20 21 21 21 23 24 25 26 27 27 26 25 17 6 5 3 1 2 9 5 2 5 5 2 6 3 2 1 2 0 2 1 2 3 2 4 2 2 7 9 11 13 12 11 10 8 11 17 17 18 17 17
18 19 19 20 20 21 22 24 26 27 28 28 26 16 5 13 1 2 1 10 8 2 2 3 5 4 4 3 2 3 3 1 2 3 2 4 4 2 2 7 12 13 14 11 8 10 12 16 16 13 15 16 18 16
18 19 20 19 20 21 22 24 26 28 29 27 19 7 2 1 1 2 7 11 1 3 2 3 3 4 3 1 2 2 3 2 3 3 2 5 4 3 6 12 14 15 10 13 12 13 13 14 15 14 14 16 16 16
17 17 18 19 19 21 20 22 25 26 29 19 2 1 1 2 9 3 3 2 3 3 3 4 1 3 1 2 2 3 2 3 3 2 3 2 2 6 12 12 13 13 13 11 11 13 13 14 15 17 15 14 14 15
18 16 17 17 20 21 21 22 23 23 8 6 6 3 5 8 2 1 2 3 2 3 4 3 3 3 2 2 1 1 1 2 1 3 3 2 4 6 10 10 10 9 10 11 11 13 13 14 15 15 16 14 14 15
17 17 17 18 18 19 20 20 19 6 3 5 6 6 4 2 1 3 2 1 4 3 2 2 1 2 1 1 1 1 0 1 1 4 2 2 5 14 12 13 11 12 12 11 12 13 13 13 12 13 15 15 13 14
17 17 17 18 19 19 20 18 13 15 11 3 3 3 1 1 1 4 3 2 2 3 3 1 3 1 2 1 0 1 1 0 3 1 1 3 8 9 11 9 11 10 11 14 16 14 14 12 12 12 14 14 14 13
17 18 18 19 19 20 11 13 15 8 3 2 2 4 4 3 5 5 4 3 2 3 2 2 1 2 0 2 1 1 1 1 2 1 1 2 7 10 10 10 10 14 14 13 13 14 14 14 13 14 14 14 13 13
17 18 16 20 9 12 16 19 18 3 3 4 3 5 7 4 3 3 3 2 3 1 2 1 2 2 1 2 0 1 2 1 2 3 2 2 6 8 8 10 12 13 14 13 12 12 12 12 13 14 14 14 13 13
18 14 4 6 14 20 19 15 1 3 3 4 5 4 3 2 4 3 4 4 3 3 2 1 1 2 2 1 2 3 2 4 2 3 3 4 8 8 8 8 8 9 11 12 12 13 14 15 14 13 12 14 14 12
15 4 5 11 17 24 18 3 2 5 5 5 5 4 3 3 5 3 4 3 4 3 2 2 3 1 3 2 3 4 5 3 3 3 3 5 7 8 7 7 8 9 10 10 13 13 13 12 12 12 13 14 13 13
5 6 11 13 11 11 3 3 3 4 7 6 4 3 4 4 4 4 4 4 4 3 4 3 4 5 4 3 3 4 6 5 4 5 5 5 6 5 4 5 7 6 8 11 11 12 13 11 12 10 12 12 11 12
11 11 14 14 6 4 4 3 3 5 7 3 4 3 3 3 6 7 4 4 4 1 3 3 4 4 4 4 5 4 4 4 3 2 3 4 1 2 2 3 4 6 7 8 8 8 9 12 10 9 9 9 7 7
19 14 13 11 3 3 4 4 3 4 5 2 3 3 3 4 1 3 5 5 5 4 5 6 7 6 5 5 6 6 4 3 3 2 3 2 2 2 1 3 3 4 4 6 5 4 7 8 7 7 8 10 9 9
3 2 4 2 3 4 5 3 4 4 4 4 1 2 3 2 4 4 4 5 4 5 5 6 9 9 8 5 3 4 6 6 5 4 2 3 1 2 2 2 3 3 4 5 5 6 6 7 6 6 6 6 8 10
3 1 2 3 4 4 6 5 4 3 3 3 3 3 3 3 3 3 3 5 5 8 7 8 8 8 8 7 7 10 6 7 6 4 4 4 4 2 1 2 3 4 3 4 5 5 6 6 7 7 7 9 9 9
4 3 2 3 5 6 6 4 4 4 5 3 1 3 3 3 2 1 3 4 4 3 6 6 6 5 6 5 4 6 8 9 6 4 3 4 2 2 3 2 0 3 4 4 4 5 5 5 6 6 6 7 7 9
4 3 4 5 8 5 3 4 3 3 3 2 3 3 3 3 0 3 4 3 4 3 3 6 4 3 2 3 4 6 7 6 5 3 2 1 2 1 3 2 1 0 2 3 3 4 5 6 7 7 8 9 8 9
5 6 6 7 5 5 6 4 4 3 5 5 3 4 2 0 2 3 3 2 2 4 7 4 4 5 6 6 5 5 6 6 5 4 4 4 3 2 2 1 2 3 3 3 4 4 5 6 7 7 8 10 10 11
8 8 8 7 4 6 6 4 6 6 3 5 5 2 0 2 3 5 2 3 3 5 7 7 7 6 6 6 5 6 6 5 5 5 4 4 2 0 1 2 2 4 5 4 4 5 5 5 6 8 8 10 10 10
8 9 6 4 3 2 3 3 2 2 4 6 3 4 3 3 5 3 3 1 1 3 5 5 6 6 6 4 3 2 5 6 4 2 5 5 4 2 1 2 3 4 4 6 6 6 5 6 6 7 7 7 9 10
8 5 8 6 6 5 3 2 3 5 5 3 3 6 7 6 3 0 1 2 3 5 6 5 5 5 3 1 3 5 5 6 8 8 7 6 4 4 5 5 5 6 6 5 6 5 5 5 5 6 7 7 7 8
6 5 6 5 4 5 7 7 6 5 3 4 4 4 4 2 1 2 2 4 5 6 7 5 5 2 2 5 4 3 5 7 11 11 10 5 4 3 4 5 5 5 5 7 7 8 8 6 6 5 6 6 5 6
7 6 5 6 8 8 9 8 4 3 3 5 3 5 6 5 3 2 4 4 4 6 7 5 3 2 3 2 4 4 3 1 1 3 6 6 5 6 6 5 4 5 4 5 5 7 4 4 5 6 6 5 5 5
4 9 6 7 10 12 11 8 8 6 5 6 6 8 9 7 2 3 5 6 5 5 5 0 4 1 3 4 3 5 4 2 2 5 6 6 6 5 5 4 5 4 5 6 6 5 6 6 6 7 7 7 8 7
7 11 8 8 6 7 8 6 5 6 6 7 9 8 6 5 5 3 6 7 6 5 5 5 3 3 4 4 4 5 6 6 4 3 6 5 4 4 4 5 6 6 7 7 7 6 7 7 6 6 7 9 9 9
5 7 8 8 5 5 6 5 3 4 5 4 5 6 5 3 3 4 4 7 6 6 5 5 6 7 8 8 8 6 6 6 8 7 8 9 8 5 4 5 6 7 9 8 8 8 9 9 8 8 8 8 9 9
Wind_Direction
322 323 325 327 328 328 330 331 334 332 333 337 340 335 326 313 313 253 243 182 212 257 283 267 269 262 282 282 288 322 314 140 297 319 280 302 277 222 211 42 0 118 189 167 217 227 163 359 4 72 357 329 334 331
318 320 321 323 325 326 327 328 331 331 330 332 336 333 327 314 306 294 244 167 173 247 270 299 283 265 257 256 272 268 285 291 328 324 305 297 339 339 331 88 349 131 13 28 292 31 342 346 10 50 357 328 336 333
316 319 318 319 321 322 324 325 327 329 328 328 331 332 327 315 301 292 259 143 188 269 285 287 238 246 211 224 227 260 212 301 303 344 313 294 335 318 19 19 342 15 343 289 311 44 326 320 40 12 355 341 335 335
310 315 316 317 318 321 321 323 325 327 326 325 328 328 325 315 293 268 244 158 144 269 299 285 255 314 168 177 190 210 264 247 303 315 302 316 318 321 23 303 321 13 291 341 296 330 329 217 357 344 338 343 340 335
305 312 314 317 318 318 319 322 324 324 323 323 326 326 324 311 282 260 249 210 191 298 291 289 308 210 221 227 188 210 226 239 228 281 282 329 270 286 347 280 24 356 2 3 339 320 285 295 315 324 327 334 335 334
299 303 309 314 318 318 317 319 322 323 322 321 325 324 318 296 194 190 269 187 189 182 276 299 324 281 305 311 213 243 219 189 217 229 288 273 283 291 298 341 66 359 324 334 307 304 291 286 295 317 324 324 332 329
296 299 305 312 317 317 317 318 321 322 320 319 324 321 315 222 149 208 344 28 166 166 261 294 290 305 326 339 8 22 58 138 272 313 262 305 294 323 288 303 359 331 316 316 315 330 304 320 315 316 321 325 329 330
291 297 303 309 313 318 318 319 321 321 317 321 325 325 40 126 3 248 73 150 161 175 224 289 285 309 11 335 346 359 339 278 41 345 315 341 295 300 267 354 331 329 324 304 322 318 301 306 303 316 322 329 330 335
290 294 301 308 313 318 321 322 322 320 316 323 326 117 126 88 130 66 22 146 65 283 263 210 274 303 350 355 344 353 333 28 1 15 4 320 355 346 321 314 314 316 309 306 315 318 312 304 308 315 321 327 329 330
289 293 298 307 314 318 321 322 322 321 318 325 322 263 106 60 312 99 214 208 209 208 223 256 217 285 325 282 49 344 8 20 354 14 276 23 296 253 276 287 283 294 310 300 305 311 316 315 316 316 317 315 314 314
295 296 295 306 312 315 322 323 322 322 338 2 354 322 336 306 176 218 209 226 171 233 209 236 225 293 135 316 358 20 21 352 337 14 343 14 332 341 336 335 325 321 304 303 295 284 286 284 295 306 306 307 307 310
299 297 296 300 304 311 319 321 320 330 309 286 298 295 273 286 153 237 224 213 223 279 206 244 159 216 174 224 195 159 102 284 59 330 289 79 309 334 346 346 340 344 340 329 310 306 303 296 298 298 298 300 299 303
304 301 295 297 300 305 313 308 312 311 307 254 191 238 280 226 246 220 210 206 244 204 224 225 323 213 161 117 221 188 173 146 311 39 46 233 286 337 343 342 339 333 323 332 340 335 330 323 310 309 303 296 293 291
306 299 296 293 298 305 307 306 321 332 288 248 231 279 208 218 235 197 194 200 229 241 271 281 216 270 157 193 176 251 73 276 94 114 238 290 328 332 328 330 341 340 335 337 334 336 348 341 320 317 308 302 295 286
305 299 302 298 281 319 317 320 320 231 199 228 189 236 225 241 260 249 219 255 219 255 198 170 149 224 125 234 176 118 191 146 231 219 221 261 317 322 314 322 326 335 333 334 335 330 342 342 337 329 326 311 295 289
316 310 271 288 320 309 319 320 260 180 219 224 231 244 208 257 245 211 212 243 178 153 136 168 170 209 186 195 221 216 200 216 227 222 246 295 307 310 314 310 312 327 327 330 338 347 343 349 341 335 338 357 331 301
310 232 275 310 320 310 311 253 203 225 228 222 235 218 211 264 257 248 202 219 150 171 220 165 230 237 118 224 221 194 216 221 231 249 273 278 286 299 305 298 308 331 342 347 343 352 346 347 343 349 355 343 334 332
256 260 273 294 316 312 265 221 242 246 246 235 231 202 199 226 233 239 211 181 185 188 169 223 128 190 209 208 225 222 230 257 260 259 279 286 299 313 297 295 317 341 343 342 351 352 348 358 2 352 350 346 345 357
293 291 286 280 305 306 286 254 213 258 244 262 245 213 228 237 227 249 240 181 205 163 153 186 229 204 206 203 231 241 234 221 254 302 279 300 270 29 19 336 347 359 348 347 346 344 349 356 350 343 349 349 340 352
302 290 278 287 246 243 262 254 223 258 261 263 243 221 221 232 265 226 230 194 187 188 194 211 222 226 210 217 209 227 226 172 187 264 303 126 169 342 65 39 5 330 324 343 351 348 351 346 345 345 352 355 357 351
281 278 324 162 180 222 278 278 255 235 279 261 268 236 251 229 232 213 216 161 186 218 233 223 234 230 221 235 211 221 219 189 202 205 250 293 59 319 296 34 17 358 340 338 347 359 360 358 336 333 344 357 1 3
253 319 291 209 238 224 250 231 248 297 257 264 266 228 255 253 246 220 142 193 232 238 223 232 229 230 232 223 217 211 211 186 200 200 222 235 253 253 218 32 345 349 351 346 350 357 358 356 350 356 348 352 344 349
181 182 220 234 234 226 249 174 224 226 241 242 276 240 230 234 217 149 242 229 253 245 245 236 242 234 244 254 215 197 188 188 193 200 206 214 235 204 202 183 297 329 352 18 354 346 356 7 357 356 358 352 354 357
123 228 228 226 203 247 242 235 215 239 239 243 229 252 227 233 51 223 237 254 284 297 237 236 210 198 165 202 219 207 189 193 197 180 160 182 253 203 206 214 183 334 350 330 356 356 356 7 7 13 11 7 4 1
225 218 227 224 216 225 217 225 212 213 239 204 227 256 232 88 243 246 243 286 338 340 335 289 233 239 242 243 242 215 172 180 183 189 177 187 187 207 204 201 154 57 350 358 47 29 16 1 9 19 19 18 10 14
224 219 212 209 205 207 210 219 207 219 213 201 225 253 108 200 237 247 221 354 352 357 343 327 313 294 257 236 238 186 180 167 160 169 169 186 182 129 36 19 46 98 30 17 25 38 36 19 16 23 24 22 18 21
222 228 211 229 244 224 250 251 282 252 230 214 200 181 169 232 243 242 145 120 15 336 340 327 297 277 271 235 200 126 137 152 152 146 119 122 113 107 101 93 105 96 72 59 49 37 31 25 15 23 35 36 27 22
223 210 200 205 201 214 231 193 211 225 228 207 177 189 185 210 246 130 173 181 282 310 342 8 353 323 307 190 139 122 120 124 113 116 108 88 71 88 99 97 95 104 93 91 95 78 60 52 32 24 31 41 37 26
218 204 209 213 205 206 214 213 230 222 207 191 208 211 214 204 311 274 306 325 321 318 310 312 348 359 69 74 67 85 144 155 160 173 178 156 155 139 140 128 132 114 106 94 57 55 63 64 56 52 38 33 37 47
219 190 204 218 218 228 221 207 235 248 231 251 270 281 266 245 265 303 304 321 325 321 309 291 295 236 252 159 124 98 55 72 289 228 194 186 175 141 157 152 143 126 117 108 104 100 102 93 75 37 28 31 33 38
179 182 214 225 245 246 252 247 251 249 246 249 241 245 255 271 261 62 18 335 307 301 289 81 103 152 135 126 183 153 129 38 74 101 103 107 120 126 129 132 127 125 120 115 110 108 107 88 78 70 54 44 41 47
195 204 213 229 243 244 238 239 228 226 229 228 236 229 235 220 222 69 6 355 357 350 354 337 330 27 59 82 73 72 72 103 80 61 84 94 95 101 127 123 122 122 117 109 103 99 93 91 87 89 89 82 71 68
219 213 224 242 243 238 222 208 217 248 227 227 226 205 193 155 103 35 1 10 15 9 29 50 74 80 77 80 77 68 61 78 78 63 60 63 71 79 98 100 107 109 109 105 104 107 103 103 99 101 101 98 92 86